Find OneWeb SL0575

NORAD ID: 56064 Int'l Des: 2023-043 Owner: ONEWEBN Country: UK Constellation: oneweb operational
LEOCIRCULARPOLARONEWEB_TYPE

当前视图

正在加载3D地球...

About OneWeb SL0575

OneWeb SL0575 (NORAD 56064) is a oneweb constellation satellite launched Mar 26, 2023 by ONEWEBN of UK. It operates in LEO, CIRCULAR, POLAR, ONEWEB_TYPE orbit with a mass of 148.00 kg.

关于 OneWeb SL0575

正在加载描述...

即将过境

Passes for default location (London). Set your location on the main map for personalized predictions.

高度历史

Loading altitude history...

两行轨道根数

1 56064U 23043U 26170.20852240 .00000049 00000-0 94142-4 0 9999
2 56064 87.9093 228.3663 0002232 86.7841 273.3545 13.16594168159235
Epoch: Jun 19, 2026 • Age: 6 hours

当前状态

高度 1199.4 km
速度 7.26 km/s
星下点 11.69°N, 163.05°E
发射日期 Mar 26, 2023
运行时间 3.2 years
类型 internet

技术详情

分类 Payload
质量 148.00 kg
干质量 140.00 kg
总质量 148.00 kg
长度 1.30 m
直径 1.00 m
跨度 5.00 m
形状 Trapezoid+2 pan
制造商 ONEWUS
平台类型 ARROW
阶段状态 In Orbit
所有者/国家 ONEWEBN/UK

Most Searched